Weather History for Curtin, WE

Change the Weather History Date:

Friday, March 1, 2013

  Actual Average Record
Temperature  
Mean Temperature 84 °F -  
Max Temperature 92 °F - - ()
Min Temperature 75 °F - - ()
Cooling Degree Days 18    
Growing Degree Days 34 (Base 50)    
Moisture  
Dew Point 76 °F    
Average Humidity 81    
Maximum Humidity 100    
Minimum Humidity 49    
Precipitation  
Precipitation 0.01 in - - ()
Sea Level Pressure  
Sea Level Pressure 29.67 in    
Wind  
Wind Speed 6 mph ()    
Max Wind Speed 10 mph    
Max Gust Speed -    
T = Trace of Precipitation, MM = Missing Value Source: Averaged Metar Reports

Daily Weather History Graph

Daily Weather History Graph

Search for Another Location

Airport:

Trip Planner

Search our weather history database for the weather conditions in past years. The results will help you decide how hot, cold, wet, or windy it might be!

Date:

Astronomy

Mar. 01, 2013 Rise Set
Actual Time 5:43 AM AWST 6:10 PM AWST
Civil Twilight 5:21 AM AWST 6:31 PM AWST
Nautical Twilight 4:56 AM AWST 6:57 PM AWST
Astronomical Twilight 4:30 AM AWST 7:23 PM AWST
Moon 8:29 PM AWST 8:32 AM AWST
Length of Visible Light 13h 10m
Length of Day
12h 26m
Waning Gibbous, 88% of the Moon is Illuminated
Mar 1
Waning Gibbous
Mar 5
Last Quarter
Mar 12
New
Mar 20
First Quarter
Mar 27
Full

Hourly Weather History & Observations

Time (AWST) Temp. Heat Index Dew Point Humidity Pressure Visibility Wind Dir Wind Speed Gust Speed Precip Events Conditions
12:00 AM 78 °F - 77 °F 96% 29.62 in - North 5.8 mph - -  
12:00 AM 78.8 °F - 77.0 °F 94% 29.62 in - North 5.8 mph - N/A   Unknown
1:00 AM 77.0 °F - 77.0 °F 100% 29.62 in - NNE 5.8 mph - N/A   Unknown
2:00 AM 77.0 °F - 77.0 °F 100% 29.62 in - NNE 4.6 mph - N/A   Unknown
3:00 AM 77.0 °F - 75.2 °F 94% 29.62 in - North 4.6 mph - N/A   Unknown
4:00 AM 77.0 °F - 75.2 °F 94% 29.62 in - NNE 4.6 mph - N/A   Unknown
5:00 AM 75.2 °F - 75.2 °F 100% 29.65 in - NNE 4.6 mph - N/A   Unknown
6:00 AM 75 °F - 74 °F 97% 29.66 in - NE 4.6 mph - -  
6:00 AM 75.2 °F - 75.2 °F 100% 29.65 in - NE 4.6 mph - N/A   Unknown
7:00 AM 77.0 °F - 77.0 °F 100% 29.68 in - NE 4.6 mph - N/A   Unknown
8:00 AM 78.8 °F - 77.0 °F 94% 29.71 in - NNE 6.9 mph - N/A   Unknown
9:00 AM 86 °F - 80 °F 76% 29.70 in - North 5.8 mph - -  
9:00 AM 86.0 °F 99.3 °F 78.8 °F 79% 29.71 in - North 5.8 mph - N/A   Unknown
10:00 AM 86.0 °F 99.3 °F 78.8 °F 79% 29.71 in - North 8.1 mph - N/A   Unknown
11:00 AM 87.8 °F 97.6 °F 75.2 °F 66% 29.68 in - NNW 8.1 mph - N/A   Unknown
12:00 PM 90 °F - 73 °F 49% 29.68 in - NNW 10.4 mph - -  
12:00 PM 89.6 °F 98.2 °F 73.4 °F 59% 29.68 in - NNW 10.4 mph - N/A   Unknown
1:00 PM 89.6 °F 98.2 °F 73.4 °F 59% 29.65 in - North 10.4 mph - N/A   Unknown
2:00 PM 87.8 °F 97.6 °F 75.2 °F 66% 29.65 in - WNW 8.1 mph - N/A   Unknown
3:00 PM 90 °F - 76 °F 55% 29.64 in - NNW 9.2 mph - -  
3:00 PM 89.6 °F 99.8 °F 75.2 °F 62% 29.65 in - NNW 9.2 mph - N/A   Unknown
4:00 PM 89.6 °F 99.8 °F 75.2 °F 62% 29.65 in - NNW 9.2 mph - N/A   Unknown
5:00 PM 87.8 °F 99.7 °F 77.0 °F 70% 29.65 in - North 9.2 mph - N/A   Unknown
6:00 PM 85 °F - 76 °F 69% 29.67 in - North 9.2 mph - -  
6:00 PM 86.0 °F 96.9 °F 77.0 °F 74% 29.68 in - North 9.2 mph - N/A   Unknown
7:00 PM 84.2 °F 94.1 °F 77.0 °F 79% 29.68 in - North 8.1 mph - N/A   Unknown
8:00 PM 82.4 °F 90.9 °F 77.0 °F 84% 29.71 in - North 4.6 mph - N/A   Unknown
9:00 PM 80 °F - 77 °F 86% 29.74 in - North 3.5 mph - -  
9:00 PM 80.6 °F 87.1 °F 77.0 °F 89% 29.74 in - North 3.5 mph - N/A   Unknown
10:00 PM 78.8 °F - 75.2 °F 89% 29.77 in - NW 4.6 mph - N/A   Unknown
11:00 PM 78.8 °F - 75.2 °F 89% 29.77 in - NW 4.6 mph - N/A   Unknown